| time (UTC) | temp F | wind direction | speed MPH | gust MPH | rain 1hr in | rain 24hr in | rain mn in | humidity % | barometer mb |
| 20260505022326 | 62 | 355 | 3.0 | 10.0 | 0.00 | 0.00 | 0.00 | 34 | 1003.6 |
| 20260505021824 | 62 | 277 | 2.0 | 6.0 | 0.00 | 0.00 | 0.00 | 34 | 1003.5 |
| 20260505021323 | 62 | 315 | 0.0 | 10.0 | 0.00 | 0.00 | 0.00 | 37 | 1003.3 |
| 20260505020821 | 63 | 323 | 3.0 | 10.0 | 0.00 | 0.00 | 0.00 | 35 | 1003.2 |
| 20260505020319 | 63 | 337 | 2.0 | 8.0 | 0.00 | 0.00 | 0.00 | 33 | 1003.1 |
| 20260505015815 | 63 | 331 | 3.0 | 8.0 | 0.00 | 0.00 | 0.00 | 34 | 1002.9 |
| 20260505015313 | 63 | 326 | 3.0 | 15.0 | 0.00 | 0.00 | 0.00 | 31 | 1002.9 |
| 20260505014829 | 64 | 9 | 3.0 | 15.0 | 0.00 | 0.00 | 0.00 | 34 | 1002.8 |
| 20260505014327 | 64 | 291 | 3.0 | 9.0 | 0.00 | 0.00 | 0.00 | 31 | 1002.6 |
| 20260505013826 | 64 | 350 | 3.0 | 9.0 | 0.00 | 0.00 | 0.00 | 32 | 1002.5 |
| 20260505013323 | 64 | 355 | 2.0 | 10.0 | 0.00 | 0.00 | 0.00 | 35 | 1002.3 |
| 20260505012821 | 65 | 44 | 4.0 | 10.0 | 0.00 | 0.00 | 0.00 | 33 | 1002.0 |
| 20260505012338 | 65 | 22 | 2.0 | 9.0 | 0.00 | 0.00 | 0.00 | 37 | 1001.9 |
| 20260505011829 | 65 | 313 | 3.0 | 9.0 | 0.00 | 0.00 | 0.00 | 35 | 1001.8 |
| 20260505011327 | 66 | 38 | 4.0 | 15.0 | 0.00 | 0.00 | 0.00 | 33 | 1001.9 |
| 20260505010826 | 66 | 350 | 5.0 | 15.0 | 0.00 | 0.00 | 0.00 | 33 | 1001.6 |
| 20260505010327 | 66 | 15 | 3.0 | 8.0 | 0.00 | 0.00 | 0.00 | 34 | 1001.4 |
| 20260505005822 | 67 | 9 | 3.0 | 8.0 | 0.00 | 0.00 | 0.00 | 33 | 1001.3 |
| 20260505005318 | 67 | 28 | 2.0 | 8.0 | 0.00 | 0.00 | 0.00 | 32 | 1001.0 |
| 20260505004837 | 68 | 333 | 3.0 | 8.0 | 0.00 | 0.00 | 0.00 | 31 | 1000.8 |
| 20260505004328 | 68 | 343 | 3.0 | 14.0 | 0.00 | 0.00 | 0.00 | 32 | 1000.7 |
| 20260505003827 | 69 | 355 | 4.0 | 14.0 | 0.00 | 0.00 | 0.00 | 32 | 1000.6 |
| 20260505003324 | 70 | 360 | 5.0 | 14.0 | 0.00 | 0.00 | 0.00 | 31 | 1000.4 |
| 20260505002822 | 70 | 312 | 6.0 | 14.0 | 0.00 | 0.00 | 0.00 | 31 | 1000.2 |
| 20260505002320 | 71 | 47 | 5.0 | 13.0 | 0.00 | 0.00 | 0.00 | 31 | 1000.1 |
| 20260505001818 | 71 | 346 | 4.0 | 14.0 | 0.00 | 0.00 | 0.00 | 33 | 1000.1 |
| 20260505001317 | 72 | 341 | 5.0 | 14.0 | 0.00 | 0.00 | 0.00 | 30 | 1000.0 |
| 20260505000814 | 72 | 66 | 3.0 | 13.0 | 0.00 | 0.00 | 0.00 | 30 | 999.8 |
| 20260505000315 | 73 | 348 | 5.0 | 14.0 | 0.00 | 0.00 | 0.00 | 31 | 999.7 |
| 20260504235830 | 73 | 17 | 5.0 | 14.0 | 0.00 | 0.00 | 0.00 | 30 | 999.5 |
| 20260504235327 | 73 | 355 | 5.0 | 13.0 | 0.00 | 0.00 | 0.00 | 31 | 999.4 |
| 20260504234821 | 74 | 288 | 3.0 | 12.0 | 0.00 | 0.00 | 0.00 | 31 | 999.3 |
| 20260504234320 | 74 | 28 | 3.0 | 9.0 | 0.00 | 0.00 | 0.00 | 32 | 999.2 |
| 20260504233817 | 75 | 21 | 2.0 | 19.0 | 0.00 | 0.00 | 0.00 | 31 | 999.1 |
| 20260504233317 | 75 | 258 | 5.0 | 19.0 | 0.00 | 0.00 | 0.00 | 30 | 999.0 |
| 20260504232815 | 76 | 323 | 5.0 | 14.0 | 0.00 | 0.00 | 0.00 | 29 | 999.0 |
| 20260504232314 | 76 | 337 | 7.0 | 14.0 | 0.00 | 0.00 | 0.00 | 29 | 999.0 |
| 20260504231812 | 76 | 298 | 3.0 | 10.0 | 0.00 | 0.00 | 0.00 | 33 | 999.1 |
| 20260504231329 | 76 | 44 | 2.0 | 16.0 | 0.00 | 0.00 | 0.00 | 33 | 999.0 |
| 20260504230827 | 77 | 64 | 3.0 | 16.0 | 0.00 | 0.00 | 0.00 | 33 | 998.8 |
| 20260504230326 | 77 | 22 | 7.0 | 13.0 | 0.00 | 0.00 | 0.00 | 32 | 998.7 |
| 20260504225820 | 77 | 344 | 6.0 | 11.0 | 0.00 | 0.00 | 0.00 | 32 | 998.8 |
| 20260504225336 | 77 | 50 | 4.0 | 11.0 | 0.00 | 0.00 | 0.00 | 33 | 998.8 |
| 20260504224828 | 77 | 21 | 5.0 | 12.0 | 0.00 | 0.00 | 0.00 | 34 | 998.7 |
| 20260504224324 | 77 | 132 | 4.0 | 19.0 | 0.00 | 0.00 | 0.00 | 35 | 998.7 |
| 20260504223821 | 77 | 305 | 3.0 | 9.0 | 0.00 | 0.00 | 0.00 | 39 | 998.7 |
| 20260504223318 | 77 | 355 | 2.0 | 9.0 | 0.00 | 0.00 | 0.00 | 38 | 998.6 |
| 20260504222815 | 77 | 230 | 1.0 | 9.0 | 0.00 | 0.00 | 0.00 | 38 | 998.4 |
| 20260504222315 | 77 | 255 | 2.0 | 8.0 | 0.00 | 0.00 | 0.00 | 37 | 998.1 |
| 20260504221813 | 76 | 319 | 2.0 | 6.0 | 0.00 | 0.00 | 0.00 | 45 | 998.1 |
| 20260504221312 | 75 | 223 | 3.0 | 6.0 | 0.00 | 0.00 | 0.00 | 44 | 998.0 |
| 20260504220829 | 75 | 215 | 0.0 | 5.0 | 0.00 | 0.00 | 0.00 | 50 | 998.3 |
| 20260504220326 | 75 | 198 | 1.0 | 5.0 | 0.00 | 0.00 | 0.00 | 44 | 998.4 |
| 20260504215822 | 75 | 200 | 1.0 | 5.0 | 0.00 | 0.00 | 0.00 | 43 | 998.3 |
| 20260504215319 | 76 | 196 | 2.0 | 8.0 | 0.00 | 0.00 | 0.00 | 40 | 998.5 |
| 20260504214817 | 77 | 257 | 3.0 | 8.0 | 0.00 | 0.00 | 0.00 | 38 | 998.5 |
| 20260504214316 | 78 | 198 | 3.0 | 7.0 | 0.00 | 0.00 | 0.00 | 37 | 998.5 |
| 20260504213814 | 77 | 245 | 1.0 | 4.0 | 0.00 | 0.00 | 0.00 | 40 | 998.5 |
| 20260504213315 | 76 | 209 | 1.0 | 5.0 | 0.00 | 0.00 | 0.00 | 43 | 998.6 |
| 20260504212814 | 74 | 208 | 3.0 | 8.0 | 0.00 | 0.00 | 0.00 | 45 | 998.7 |
| 20260504212313 | 73 | 221 | 4.0 | 9.0 | 0.00 | 0.00 | 0.00 | 46 | 998.8 |
| 20260504211811 | 74 | 209 | 4.0 | 14.0 | 0.00 | 0.00 | 0.00 | 44 | 998.7 |
| 20260504211331 | 75 | 195 | 4.0 | 14.0 | 0.00 | 0.00 | 0.00 | 40 | 999.0 |
| 20260504210829 | 75 | 278 | 1.0 | 8.0 | 0.00 | 0.00 | 0.00 | 39 | 998.8 |
| 20260504210328 | 75 | 329 | 2.0 | 8.0 | 0.00 | 0.00 | 0.00 | 48 | 998.8 |
| 20260504205823 | 75 | 305 | 3.0 | 10.0 | 0.00 | 0.00 | 0.00 | 39 | 998.6 |
| 20260504205320 | 74 | 22 | 4.0 | 10.0 | 0.00 | 0.00 | 0.00 | 45 | 998.6 |
| 20260504204817 | 72 | 327 | 1.0 | 7.0 | 0.00 | 0.00 | 0.00 | 49 | 999.0 |
| 20260504204315 | 72 | 296 | 2.0 | 9.0 | 0.00 | 0.00 | 0.00 | 50 | 998.9 |
| 20260504203813 | 74 | 327 | 2.0 | 12.0 | 0.00 | 0.00 | 0.00 | 50 | 999.0 |
| 20260504203331 | 80 | 338 | 5.0 | 12.0 | 0.00 | 0.00 | 0.00 | 30 | 999.0 |
| 20260504202828 | 80 | 302 | 2.0 | 9.0 | 0.00 | 0.00 | 0.00 | 29 | 998.6 |
| 20260504202323 | 81 | 213 | 1.0 | 9.0 | 0.00 | 0.00 | 0.00 | 30 | 998.7 |
| 20260504201822 | 81 | 312 | 4.0 | 8.0 | 0.00 | 0.00 | 0.00 | 30 | 998.8 |
| 20260504201318 | 82 | 304 | 4.0 | 8.0 | 0.00 | 0.00 | 0.00 | 29 | 998.9 |
| 20260504200816 | 81 | 227 | 3.0 | 10.0 | 0.00 | 0.00 | 0.00 | 30 | 999.0 |
| 20260504200314 | 81 | 348 | 4.0 | 10.0 | 0.00 | 0.00 | 0.00 | 29 | 999.1 |
| 20260504195829 | 82 | 166 | 3.0 | 11.0 | 0.00 | 0.00 | 0.00 | 29 | 999.0 |
| 20260504195326 | 81 | 149 | 3.0 | 11.0 | 0.00 | 0.00 | 0.00 | 31 | 999.2 |
| 20260504194826 | 80 | 201 | 5.0 | 12.0 | 0.00 | 0.00 | 0.00 | 30 | 999.3 |
| 20260504194324 | 81 | 329 | 5.0 | 14.0 | 0.00 | 0.00 | 0.00 | 29 | 999.3 |
| 20260504193822 | 82 | 323 | 5.0 | 14.0 | 0.00 | 0.00 | 0.00 | 28 | 999.3 |
| 20260504193318 | 82 | 15 | 3.0 | 10.0 | 0.00 | 0.00 | 0.00 | 30 | 999.3 |
| 20260504192816 | 82 | 183 | 3.0 | 8.0 | 0.00 | 0.00 | 0.00 | 30 | 999.3 |
| 20260504192314 | 81 | 313 | 4.0 | 11.0 | 0.00 | 0.00 | 0.00 | 30 | 999.5 |
| 20260504191813 | 80 | 332 | 3.0 | 10.0 | 0.00 | 0.00 | 0.00 | 31 | 999.4 |
| 20260504191331 | 80 | 323 | 5.0 | 10.0 | 0.00 | 0.00 | 0.00 | 29 | 999.4 |
| 20260504190831 | 80 | 271 | 4.0 | 8.0 | 0.00 | 0.00 | 0.00 | 31 | 999.6 |
| 20260504190329 | 80 | 329 | 3.0 | 11.0 | 0.00 | 0.00 | 0.00 | 32 | 999.6 |
| 20260504185822 | 80 | 165 | 5.0 | 11.0 | 0.00 | 0.00 | 0.00 | 31 | 999.7 |
| 20260504185318 | 80 | 340 | 3.0 | 11.0 | 0.00 | 0.00 | 0.00 | 31 | 999.6 |
| 20260504184816 | 80 | 5 | 4.0 | 13.0 | 0.00 | 0.00 | 0.00 | 32 | 999.7 |
| 20260504184316 | 81 | 346 | 5.0 | 13.0 | 0.00 | 0.00 | 0.00 | 31 | 999.8 |
| 20260504183813 | 80 | 287 | 4.0 | 13.0 | 0.00 | 0.00 | 0.00 | 31 | 999.8 |
| 20260504183326 | 80 | 180 | 4.0 | 13.0 | 0.00 | 0.00 | 0.00 | 32 | 999.8 |
| 20260504182824 | 80 | 238 | 4.0 | 11.0 | 0.00 | 0.00 | 0.00 | 32 | 999.8 |
| 20260504182320 | 81 | 280 | 3.0 | 7.0 | 0.00 | 0.00 | 0.00 | 32 | 999.8 |
| 20260504181817 | 81 | 209 | 2.0 | 9.0 | 0.00 | 0.00 | 0.00 | 32 | 999.9 |
| 20260504181315 | 81 | 165 | 2.0 | 9.0 | 0.00 | 0.00 | 0.00 | 31 | 999.9 |
| 20260504180330 | 80 | 218 | 3.0 | 12.0 | 0.00 | 0.00 | 0.00 | 31 | 999.8 |
| 20260504175824 | 80 | 200 | 3.0 | 12.0 | 0.00 | 0.00 | 0.00 | 31 | 999.8 |
| 20260504175322 | 80 | 360 | 4.0 | 10.0 | 0.00 | 0.00 | 0.00 | 30 | 999.8 |
| 20260504174820 | 81 | 190 | 3.0 | 9.0 | 0.00 | 0.00 | 0.00 | 31 | 999.9 |
| 20260504174319 | 80 | 198 | 2.0 | 10.0 | 0.00 | 0.00 | 0.00 | 32 | 999.8 |
| 20260504173817 | 80 | 238 | 3.0 | 10.0 | 0.00 | 0.00 | 0.00 | 32 | 999.9 |
| 20260504173314 | 80 | 271 | 4.0 | 7.0 | 0.00 | 0.00 | 0.00 | 33 | 999.9 |
| 20260504172812 | 79 | 188 | 3.0 | 9.0 | 0.00 | 0.00 | 0.00 | 35 | 999.9 |
| 20260504172330 | 79 | 323 | 3.0 | 9.0 | 0.00 | 0.00 | 0.00 | 34 | 1000.0 |
| 20260504171824 | 79 | 167 | 2.0 | 10.0 | 0.00 | 0.00 | 0.00 | 35 | 1000.0 |
| 20260504171322 | 79 | 246 | 4.0 | 10.0 | 0.00 | 0.00 | 0.00 | 36 | 1000.2 |
| 20260504170818 | 79 | 236 | 3.0 | 8.0 | 0.00 | 0.00 | 0.00 | 35 | 1000.2 |
| 20260504170316 | 79 | 180 | 2.0 | 8.0 | 0.00 | 0.00 | 0.00 | 37 | 1000.1 |
| 20260504160321 | 75 | 199 | 3.0 | 6.0 | 0.00 | 0.00 | 0.00 | 41 | 1000.8 |
| 20260504150823 | 72 | 238 | 3.0 | 7.0 | 0.00 | 0.00 | 0.00 | 46 | 1001.8 |
| 20260504150320 | 71 | 188 | 3.0 | 8.0 | 0.00 | 0.00 | 0.00 | 46 | 1001.9 |
| 20260504141313 | 63 | 192 | 2.0 | 6.0 | 0.00 | 0.00 | 0.00 | 55 | 1002.1 |
| 20260504140812 | 63 | 202 | 3.0 | 7.0 | 0.00 | 0.00 | 0.00 | 55 | 1002.2 |
| 20260504140331 | 64 | 238 | 4.0 | 7.0 | 0.00 | 0.00 | 0.00 | 55 | 1002.2 |
| 20260504130821 | 55 | 219 | 2.0 | 5.0 | 0.00 | 0.00 | 0.00 | 64 | 1002.7 |
| 20260504110322 | 49 | 197 | 2.0 | 3.0 | 0.00 | 0.00 | 0.00 | 69 | 1003.2 |
| 20260504081824 | 51 | 192 | 0.0 | 2.0 | 0.00 | 0.00 | 0.00 | 61 | 1004.6 |
| 20260504081323 | 51 | 192 | 0.0 | 2.0 | 0.00 | 0.00 | 0.00 | 61 | 1004.7 |
| 20260504080822 | 51 | 192 | 1.0 | 4.0 | 0.00 | 0.00 | 0.00 | 61 | 1004.6 |
| 20260504080317 | 51 | 190 | 1.0 | 3.0 | 0.00 | 0.00 | 0.00 | 61 | 1004.7 |
| 20260504070327 | 53 | 189 | 0.0 | 0.0 | 0.00 | 0.00 | 0.00 | 59 | 1005.1 |
| 20260504050326 | 58 | 259 | 0.0 | 1.0 | 0.00 | 0.00 | 0.00 | 43 | 1006.6 |
| 20260504045815 | 59 | 259 | 0.0 | 0.0 | 0.00 | 0.00 | 0.00 | 41 | 1006.5 |
| 20260504045313 | 59 | 259 | 0.0 | 0.0 | 0.00 | 0.00 | 0.00 | 41 | 1006.4 |
| 20260504044828 | 59 | 259 | 0.0 | 2.0 | 0.00 | 0.00 | 0.00 | 41 | 1006.6 |
| 20260504044326 | 60 | 259 | 0.0 | 4.0 | 0.00 | 0.00 | 0.00 | 41 | 1006.8 |
| 20260504043824 | 60 | 263 | 1.0 | 3.0 | 0.00 | 0.00 | 0.00 | 40 | 1006.6 |
| 20260504043323 | 60 | 263 | 0.0 | 0.0 | 0.00 | 0.00 | 0.00 | 39 | 1006.6 |
| 20260504042821 | 60 | 263 | 0.0 | 0.0 | 0.00 | 0.00 | 0.00 | 39 | 1006.6 |
| 20260504042319 | 60 | 263 | 0.0 | 2.0 | 0.00 | 0.00 | 0.00 | 39 | 1006.7 |
| 20260504041816 | 61 | 263 | 1.0 | 2.0 | 0.00 | 0.00 | 0.00 | 39 | 1006.7 |
| 20260504041314 | 61 | 277 | 0.0 | 0.0 | 0.00 | 0.00 | 0.00 | 38 | 1006.7 |
| 20260504040812 | 61 | 277 | 0.0 | 0.0 | 0.00 | 0.00 | 0.00 | 38 | 1006.7 |
| 20260504040330 | 61 | 277 | 0.0 | 0.0 | 0.00 | 0.00 | 0.00 | 37 | 1006.8 |
| 20260504035826 | 62 | 277 | 0.0 | 2.0 | 0.00 | 0.00 | 0.00 | 37 | 1006.8 |
| 20260504035323 | 62 | 277 | 0.0 | 2.0 | 0.00 | 0.00 | 0.00 | 37 | 1006.9 |
| 20260504034820 | 62 | 202 | 0.0 | 1.0 | 0.00 | 0.00 | 0.00 | 36 | 1006.9 |
| 20260504034338 | 62 | 202 | 0.0 | 1.0 | 0.00 | 0.00 | 0.00 | 36 | 1006.9 |
| 20260504033829 | 62 | 202 | 1.0 | 1.0 | 0.00 | 0.00 | 0.00 | 36 | 1007.0 |
| 20260504033327 | 63 | 202 | 0.0 | 0.0 | 0.00 | 0.00 | 0.00 | 36 | 1007.0 |
| 20260504032825 | 63 | 202 | 0.0 | 1.0 | 0.00 | 0.00 | 0.00 | 37 | 1007.1 |
| 20260504032321 | 63 | 202 | 0.0 | 1.0 | 0.00 | 0.00 | 0.00 | 36 | 1007.1 |
| 20260504031817 | 63 | 202 | 0.0 | 2.0 | 0.00 | 0.00 | 0.00 | 34 | 1007.1 |
| 20260504031315 | 64 | 202 | 0.0 | 2.0 | 0.00 | 0.00 | 0.00 | 34 | 1007.1 |
| 20260504030813 | 64 | 202 | 0.0 | 1.0 | 0.00 | 0.00 | 0.00 | 34 | 1007.1 |
| 20260504030331 | 64 | 202 | 0.0 | 1.0 | 0.00 | 0.00 | 0.00 | 34 | 1007.0 |
| 20260504025826 | 64 | 202 | 0.0 | 2.0 | 0.00 | 0.00 | 0.00 | 34 | 1006.9 |
| 20260504025323 | 64 | 202 | 1.0 | 2.0 | 0.00 | 0.00 | 0.00 | 33 | 1007.0 |
| 20260504024822 | 64 | 202 | 0.0 | 2.0 | 0.00 | 0.00 | 0.00 | 33 | 1006.9 |
| 20260504024318 | 65 | 202 | 1.0 | 5.0 | 0.00 | 0.00 | 0.00 | 33 | 1006.9 |
| 20260504023817 | 65 | 198 | 2.0 | 5.0 | 0.00 | 0.00 | 0.00 | 34 | 1006.8 |
| 20260504023316 | 66 | 311 | 0.0 | 1.0 | 0.00 | 0.00 | 0.00 | 32 | 1006.7 |
| 20260504022812 | 66 | 311 | 0.0 | 2.0 | 0.00 | 0.00 | 0.00 | 32 | 1006.7 |